Hourly Weather Juchitepec de Mariano Riva Palacio

Today, 1 August, Sunday

Time Temperature Precipitation Wind Pressure Humidity
00:00 +12°C° 0.1 mm 1 mps 565 mmHg 90%
01:00 +12°C° 0.1 mm 1 mps 565 mmHg 91%
02:00 +12°C° 0.1 mm 1 mps 565 mmHg 91%
03:00 +12°C° 0.1 mm 1 mps 565 mmHg 91%
04:00 +12°C° 0.1 mm 1 mps 565 mmHg 91%
05:00 +11°C° 0 mm 1 mps 565 mmHg 91%
06:00 +13°C° 0.1 mm 1 mps 566 mmHg 85%
07:00 +15°C° 0.1 mm 1 mps 567 mmHg 79%
08:00 +16°C° 0.1 mm 0 mps 567 mmHg 72%
09:00 +19°C° 0.3 mm 1 mps 568 mmHg 67%
10:00 +21°C° 0.3 mm 1 mps 568 mmHg 62%
11:00 +21°C° 0.3 mm 2 mps 568 mmHg 57%
12:00 +21°C° 0.9 mm 2 mps 568 mmHg 58%
13:00 +21°C° 0.9 mm 2 mps 567 mmHg 59%
14:00 +21°C° 0.9 mm 2 mps 567 mmHg 60%
15:00 +19°C° 1.2 mm 2 mps 566 mmHg 67%
16:00 +19°C° 1.2 mm 1 mps 566 mmHg 74%
17:00 +18°C° 1.2 mm 1 mps 565 mmHg 81%
18:00 +16°C° 1.9 mm 1 mps 566 mmHg 84%
19:00 +15°C° 1.9 mm 2 mps 566 mmHg 88%
20:00 +14°C° 1.9 mm 2 mps 566 mmHg 91%
21:00 +13°C° 1 mm 2 mps 566 mmHg 91%
22:00 +13°C° 1 mm 1 mps 566 mmHg 90%
23:00 +13°C° 1 mm 1 mps 566 mmHg 90%

Tomorrow, 2 August, Monday

Time Temperature Precipitation Wind Pressure Humidity
00:00 +13°C° 0 mm 1 mps 565 mmHg 90%
01:00 +12°C° 0 mm 1 mps 565 mmHg 89%
02:00 +12°C° 0 mm 1 mps 564 mmHg 88%
03:00 +12°C° 0 mm 1 mps 564 mmHg 88%
04:00 +12°C° 0 mm 1 mps 565 mmHg 88%
05:00 +11°C° 0 mm 1 mps 565 mmHg 88%
06:00 +13°C° 0 mm 1 mps 566 mmHg 82%
07:00 +15°C° 0 mm 1 mps 566 mmHg 77%
08:00 +18°C° 0 mm 1 mps 567 mmHg 71%
09:00 +19°C° 0.3 mm 1 mps 567 mmHg 68%
10:00 +20°C° 0.3 mm 1 mps 567 mmHg 66%
11:00 +21°C° 0.3 mm 1 mps 568 mmHg 63%
12:00 +21°C° 1.1 mm 1 mps 567 mmHg 66%
13:00 +20°C° 1.1 mm 1 mps 566 mmHg 68%
14:00 +20°C° 1.1 mm 1 mps 566 mmHg 70%
15:00 +19°C° 1.5 mm 1 mps 565 mmHg 75%
16:00 +18°C° 1.5 mm 1 mps 565 mmHg 80%
17:00 +16°C° 1.5 mm 1 mps 565 mmHg 85%
18:00 +16°C° 1.3 mm 1 mps 565 mmHg 86%
19:00 +15°C° 1.3 mm 1 mps 565 mmHg 88%
20:00 +14°C° 1.3 mm 1 mps 565 mmHg 90%
21:00 +14°C° 5.8 mm 1 mps 565 mmHg 92%
22:00 +13°C° 5.8 mm 1 mps 565 mmHg 94%
23:00 +13°C° 5.8 mm 1 mps 565 mmHg 96%

Day after tomorrow, 3 August, Tuesday

Time Temperature Precipitation Wind Pressure Humidity
00:00 +13°C° 1.6 mm 1 mps 565 mmHg 95%
01:00 +12°C° 1.6 mm 1 mps 564 mmHg 95%
02:00 +12°C° 1.6 mm 1 mps 564 mmHg 94%
03:00 +11°C° 0.2 mm 0 mps 564 mmHg 94%
04:00 +11°C° 0.2 mm 0 mps 564 mmHg 93%
05:00 +12°C° 0.2 mm 0 mps 564 mmHg 92%
06:00 +12°C° 0.4 mm 0 mps 564 mmHg 91%
07:00 +13°C° 0.4 mm 0 mps 565 mmHg 89%
08:00 +13°C° 0.4 mm 0 mps 565 mmHg 88%
09:00 +14°C° 0.2 mm 0 mps 566 mmHg 84%
10:00 +15°C° 0.2 mm 0 mps 566 mmHg 80%
11:00 +18°C° 0.2 mm 1 mps 566 mmHg 75%
12:00 +18°C° 0.7 mm 1 mps 566 mmHg 76%
13:00 +18°C° 0.7 mm 1 mps 565 mmHg 77%
14:00 +18°C° 0.7 mm 1 mps 565 mmHg 78%
15:00 +18°C° 1.8 mm 1 mps 564 mmHg 82%
16:00 +16°C° 1.8 mm 1 mps 564 mmHg 85%
17:00 +14°C° 1.8 mm 0 mps 564 mmHg 89%
18:00 +14°C° 1.7 mm 1 mps 564 mmHg 90%
19:00 +14°C° 1.7 mm 1 mps 564 mmHg 91%
20:00 +13°C° 1.7 mm 1 mps 564 mmHg 92%
21:00 +13°C° 0.3 mm 1 mps 564 mmHg 92%
22:00 +13°C° 0.3 mm 1 mps 564 mmHg 92%
23:00 +13°C° 0.3 mm 1 mps 564 mmHg 92%

4 August, Wednesday

Time Temperature Precipitation Wind Pressure Humidity
00:00 +13°C° 1 mm 1 mps 564 mmHg 93%
01:00 +13°C° 1 mm 1 mps 564 mmHg 94%
02:00 +13°C° 1 mm 1 mps 563 mmHg 95%
03:00 +12°C° 1.1 mm 1 mps 563 mmHg 95%
04:00 +11°C° 1.1 mm 0 mps 563 mmHg 95%
05:00 +11°C° 1.1 mm 0 mps 563 mmHg 95%
06:00 +12°C° 0.2 mm 0 mps 564 mmHg 94%
07:00 +12°C° 0.2 mm 0 mps 564 mmHg 92%
08:00 +12°C° 0.2 mm 0 mps 565 mmHg 91%
09:00 +13°C° 0.1 mm 0 mps 565 mmHg 87%
10:00 +14°C° 0.1 mm 0 mps 565 mmHg 82%
11:00 +16°C° 0.1 mm 1 mps 566 mmHg 78%
12:00 +18°C° 0.3 mm 1 mps 566 mmHg 75%
13:00 +19°C° 0.3 mm 1 mps 565 mmHg 73%
14:00 +19°C° 0.3 mm 1 mps 565 mmHg 70%
15:00 +19°C° 0.6 mm 1 mps 565 mmHg 75%
16:00 +16°C° 0.6 mm 0 mps 565 mmHg 80%
17:00 +15°C° 0.6 mm 0 mps 564 mmHg 85%
18:00 +15°C° 0.8 mm 1 mps 564 mmHg 87%
19:00 +14°C° 0.8 mm 1 mps 564 mmHg 89%
20:00 +13°C° 0.8 mm 1 mps 564 mmHg 90%
21:00 +13°C° 0.4 mm 1 mps 564 mmHg 91%
22:00 +13°C° 0.4 mm 1 mps 564 mmHg 91%
23:00 +13°C° 0.4 mm 1 mps 565 mmHg 92%

5 August, Thursday

Time Temperature Precipitation Wind Pressure Humidity
00:00 +13°C° 0.1 mm 1 mps 564 mmHg 91%
01:00 +13°C° 0.1 mm 1 mps 564 mmHg 90%
02:00 +13°C° 0.1 mm 1 mps 564 mmHg 89%
03:00 +12°C° 0 mm 1 mps 564 mmHg 89%
04:00 +12°C° 0 mm 1 mps 564 mmHg 89%
05:00 +12°C° 0 mm 1 mps 564 mmHg 88%
06:00 +13°C° 0 mm 1 mps 565 mmHg 82%
07:00 +15°C° 0 mm 1 mps 566 mmHg 76%
08:00 +16°C° 0 mm 0 mps 567 mmHg 70%
09:00 +19°C° 0 mm 1 mps 567 mmHg 64%
10:00 +21°C° 0 mm 1 mps 567 mmHg 58%
11:00 +21°C° 0 mm 2 mps 567 mmHg 52%
12:00 +21°C° 0.3 mm 2 mps 567 mmHg 56%
13:00 +20°C° 0.3 mm 2 mps 566 mmHg 61%
14:00 +20°C° 0.3 mm 2 mps 566 mmHg 65%
15:00 +19°C° 0.7 mm 2 mps 565 mmHg 70%
16:00 +19°C° 0.7 mm 1 mps 565 mmHg 75%
17:00 +18°C° 0.7 mm 1 mps 565 mmHg 80%
18:00 +16°C° 0.1 mm 1 mps 565 mmHg 80%
19:00 +14°C° 0.1 mm 1 mps 565 mmHg 81%
20:00 +13°C° 0.1 mm 2 mps 564 mmHg 82%
21:00 +12°C° 0 mm 2 mps 564 mmHg 81%
22:00 +12°C° 0 mm 2 mps 565 mmHg 81%
23:00 +12°C° 0 mm 2 mps 565 mmHg 81%

6 August, Friday

Time Temperature Precipitation Wind Pressure Humidity
00:00 +10°C° 0 mm 2 mps 564 mmHg 81%
01:00 +10°C° 0 mm 2 mps 564 mmHg 82%
02:00 +10°C° 0 mm 2 mps 564 mmHg 82%
03:00 +10°C° 0 mm 2 mps 564 mmHg 84%
04:00 +10°C° 0 mm 2 mps 564 mmHg 85%
05:00 +10°C° 0 mm 2 mps 564 mmHg 86%
06:00 +13°C° 0 mm 1 mps 565 mmHg 80%
07:00 +14°C° 0 mm 1 mps 565 mmHg 73%
08:00 +16°C° 0 mm 1 mps 566 mmHg 67%
09:00 +19°C° 0 mm 1 mps 567 mmHg 60%
10:00 +21°C° 0 mm 1 mps 567 mmHg 54%
11:00 +21°C° 0 mm 2 mps 567 mmHg 47%
12:00 +21°C° 0.1 mm 2 mps 567 mmHg 51%
13:00 +21°C° 0.1 mm 2 mps 566 mmHg 54%
14:00 +20°C° 0.1 mm 2 mps 566 mmHg 57%
15:00 +19°C° 0.4 mm 2 mps 565 mmHg 66%
16:00 +17°C° 0.4 mm 2 mps 564 mmHg 74%
17:00 +15°C° 0.4 mm 2 mps 564 mmHg 82%
18:00 +15°C° 0.3 mm 2 mps 564 mmHg 83%
19:00 +15°C° 0.3 mm 1 mps 564 mmHg 84%
20:00 +14°C° 0.3 mm 1 mps 564 mmHg 85%
21:00 +14°C° 0.1 mm 2 mps 564 mmHg 87%
22:00 +13°C° 0.1 mm 2 mps 564 mmHg 88%
23:00 +13°C° 0.1 mm 2 mps 564 mmHg 90%
Show more

We Need Your Consent

Meteoprog and our Service Providers may store and access personal data such as cookies, device identifiers or other similar technologies on your device and process such data to personalise content and ads, as well as provide social media features and to analyse the traffic.

  • Store and/or access information on your device

    Cookies, device identifiers or other information can be stored or accessed on your device for the purposes indicated above.

  • Personalised ads and content, ad and content measurement, audience insights, and products development

    Ads and content can be personalised based on a profile. More data can be added to better personalise ads and content. Ad and content performance can be measured. Insights about the audience who saw the ads and content can be derived. Such data can be used to develop or improve user’s experience, systems and software.

By clicking ‘I Agree’ you will allow the use of indicated cookies, device identifiers, web beacons or other similar technologies. Your settings can be changed in the browser on your device.

For certain purposes, legitimate interests may be relied on, rather than consent. You can read more about this in our Privacy and Cookie Policy.